Vertical_Velocity
0 -3 2 2 1 -1 -0 0 1 -1 -1 0 -2 0 -0 -2 -1 -1 -1 -1 0 -1 -1 -1 -1 -1 0 -0 -2 -1 -2 -0 -2 0 -3 -0 -1 -1 -2 -1 -0 -0 -0
1 -2 3 3 0 -1 -0 -2 0 -0 -1 1 -1 -1 7 -1 0 1 0 0 -1 -1 -0 -3 -1 -4 -1 -2 -2 -3 0 -1 1 0 -1 -1 -1 -1 -1 -4 -2 -1 -1
-2 0 0 4 0 -1 -1 0 -2 0 -0 3 4 -0 1 1 0 -2 -1 -0 1 -2 -0 1 0 -0 1 1 0 2 1 1 -0 -0 -1 -1 0 -1 -1 -0 -2 -3 -1
1 -0 -1 2 1 -1 -2 1 0 -2 1 1 1 2 2 3 -1 -1 0 -1 -0 1 1 1 -1 -0 1 1 1 -0 -0 -1 0 -1 -0 -1 -0 -1 -1 -1 -1 -1 -0
2 2 0 4 0 -1 -1 -1 1 -1 1 1 1 9 5 2 -1 -2 -0 0 -0 -1 0 0 -1 1 1 0 0 1 0 -0 -1 -1 -1 -1 -1 0 0 -0 0 0 0
2 -3 3 5 1 1 -0 -1 -1 0 -1 3 1 4 10 1 -1 -2 -2 -1 -0 0 0 0 -2 -1 -2 -2 -1 -1 -1 0 0 -1 0 1 -1 0 -0 -1 -0 -1 -1
-0 4 -1 4 1 -2 0 1 -0 1 -1 1 2 5 6 -1 -0 -0 0 -1 -1 -0 -1 -2 0 -1 -2 -0 -1 0 -0 -0 -0 -0 -1 -0 -1 -0 -1 -2 -1 -0 0
0 5 1 7 3 -0 -2 2 -0 -0 -1 -1 1 1 3 -0 1 1 2 0 1 2 0 -0 -0 1 -1 0 -0 -0 1 1 0 1 1 2 1 0 1 1 -1 -1 -1
7 0 1 2 7 2 -2 2 -1 -1 -1 -0 0 1 3 2 2 1 1 2 1 -0 0 2 0 1 2 2 2 1 -1 0 1 0 0 0 -0 -1 -0 0 0 0 -0
11 7 2 3 0 1 -1 3 -2 1 1 0 0 3 -1 1 2 3 3 2 3 -0 -0 0 -0 -0 -2 -2 -1 -1 -0 -0 -2 -0 -1 -1 -1 -1 -0 0 -0 0 0
12 8 9 2 -0 -1 -1 -1 3 -1 1 1 1 -1 1 -1 0 1 0 1 2 0 -1 -1 -2 -1 0 1 1 1 1 0 -0 -0 -1 -0 0 -1 -1 -2 -0 -1 -0
3 3 5 12 5 -1 -2 -1 2 0 -1 1 2 0 1 2 1 1 1 -1 -0 3 0 1 1 -1 -1 -1 -2 -1 -1 -2 -2 0 0 1 0 -0 -0 -1 -2 -1 -1
-39 -0 -1 8 7 3 -1 -1 -0 0 -5 -1 1 2 1 2 2 -0 -0 1 -1 1 1 0 1 2 1 0 -1 -2 -1 -0 0 -0 -0 -1 -1 -1 -1 -1 -1 -2 -1
-10 -23 12 -3 2 10 4 0 2 0 -2 -5 -1 1 -1 0 0 0 1 1 0 1 1 1 1 -1 2 0 0 1 -1 -1 -0 -0 -1 -1 -2 -0 1 1 0 -0 1
-8 -20 8 -0 5 -2 5 2 0 1 1 -1 -5 -0 -3 -1 0 -0 0 0 -0 -1 1 -0 2 1 1 1 0 -1 1 0 -2 -1 0 -1 -1 -0 -1 -1 -3 -1 2
7 -35 -23 -1 -5 2 -4 4 3 2 1 1 0 1 -2 -3 -1 -0 0 0 0 1 1 -0 -1 1 0 -0 1 1 -0 -1 1 0 0 1 -0 -0 -0 -1 -3 -1 -2
-15 7 -32 -6 -7 -7 0 -2 2 5 -1 1 1 1 1 2 1 -0 -2 -1 0 2 2 -1 -2 1 -2 1 1 -1 -1 -1 -2 -0 -1 -2 -2 0 -3 -4 -0 3 -1
3 6 5 1 -7 -5 4 -8 2 2 0 3 -1 -1 2 2 2 3 1 1 3 -1 3 2 1 0 2 -1 -0 0 -1 -1 -1 -2 -1 -2 1 -0 -1 1 -3 -1 1
1 1 16 -28 -12 -7 1 21 -8 9 0 1 1 -1 3 3 1 2 1 0 1 3 -1 3 1 0 1 3 0 -0 0 2 -1 -0 -0 -1 -1 -0 -1 -1 0 -2 -4
-0 11 -2 -9 1 -6 6 3 2 -3 8 -6 4 2 1 1 2 -2 0 2 -2 2 0 -2 1 -0 1 2 -0 0 -1 -1 -1 0 -0 2 1 -0 -1 2 2 2 1
6 -1 -0 4 -8 -1 3 10 7 1 4 -2 -1 17 9 6 -3 -3 2 -1 1 -4 -2 2 2 -2 2 2 -1 -2 3 1 -0 1 -0 0 -1 -1 -1 -1 0 0 0
14 9 6 9 -1 -2 -6 -25 -9 -6 6 1 -3 3 1 -1 11 4 6 7 -0 -0 -2 -1 -1 -1 2 -2 4 -1 -3 -7 1 -3 -3 1 -3 -2 -1 -2 -0 -2 0
-5 -10 22 8 4 6 3 -7 -12 -10 -9 8 2 -2 7 12 5 5 7 10 14 9 5 -2 -2 -1 -1 -1 -1 -1 -2 -0 -3 -4 -4 -2 -2 1 -1 -1 0 -1 -3
3 -3 -35 -2 -6 -16 27 4 -7 -3 -5 -17 4 -4 4 -4 2 3 11 12 5 5 9 11 21 13 8 7 0 2 1 -1 -2 -3 0 1 -1 1 1 -1 -2 1 1
4 5 3 15 10 16 2 3 10 3 -4 -29 2 -0 -25 1 5 -9 -6 1 1 -12 1 6 3 1 4 7 -3 -1 2 -2 0 1 -7 -2 -0 -2 -2 -1 -2 -1 3
-1 7 3 4 7 6 6 2 4 17 15 4 -13 -4 4 -3 -19 5 16 7 -3 -0 2 -7 -7 -9 -15 -12 -4 2 -4 1 -3 0 -2 -5 1 1 -1 2 0 -1 -3
Height
1519 1525 1527 1530 1532 1534 1536 1536 1537 1538 1539 1539 1542 1545 1549 1551 1554 1555 1556 1557 1558 1559 1560 1561 1562 1564 1564 1565 1565 1566 1566 1566 1567 1567 1566 1567 1567 1566 1566 1566 1565 1565 1564
1518 1523 1527 1530 1532 1533 1535 1536 1537 1539 1540 1540 1542 1545 1549 1551 1554 1555 1557 1558 1559 1560 1560 1562 1563 1565 1566 1567 1567 1568 1568 1569 1569 1569 1569 1568 1568 1568 1567 1566 1566 1566 1566
1518 1523 1526 1530 1532 1534 1535 1536 1538 1539 1540 1542 1543 1546 1549 1551 1553 1556 1557 1559 1560 1560 1562 1563 1565 1567 1568 1569 1570 1570 1570 1571 1571 1571 1571 1570 1570 1569 1569 1568 1567 1568 1567
1518 1522 1526 1529 1531 1533 1535 1537 1538 1540 1541 1543 1544 1546 1549 1551 1553 1555 1558 1559 1560 1562 1563 1565 1567 1568 1570 1571 1571 1572 1572 1572 1573 1573 1572 1572 1572 1571 1571 1570 1569 1568 1568
1519 1522 1525 1528 1530 1532 1535 1537 1539 1540 1542 1544 1545 1548 1550 1552 1554 1556 1558 1560 1561 1563 1565 1566 1568 1570 1571 1572 1573 1573 1574 1574 1574 1574 1574 1574 1573 1573 1572 1572 1571 1570 1569
1520 1523 1526 1528 1530 1533 1535 1537 1539 1541 1542 1544 1546 1549 1551 1553 1554 1556 1558 1561 1563 1565 1566 1568 1570 1572 1573 1574 1574 1575 1575 1575 1575 1575 1575 1575 1575 1574 1574 1573 1572 1571 1570
1520 1522 1526 1528 1530 1533 1535 1537 1540 1541 1542 1544 1547 1550 1551 1554 1555 1557 1559 1561 1564 1566 1568 1570 1571 1573 1574 1575 1575 1576 1576 1576 1577 1576 1576 1576 1575 1575 1575 1574 1573 1572 1571
1519 1522 1524 1528 1530 1533 1536 1538 1540 1541 1542 1544 1547 1550 1552 1554 1556 1558 1560 1562 1565 1567 1569 1570 1572 1573 1575 1576 1576 1577 1577 1577 1577 1577 1577 1577 1576 1576 1575 1574 1574 1573 1572
1519 1521 1523 1527 1530 1533 1536 1538 1540 1541 1543 1544 1546 1549 1553 1554 1557 1559 1561 1563 1565 1567 1569 1571 1573 1574 1575 1576 1577 1577 1578 1578 1578 1578 1577 1577 1577 1576 1576 1575 1574 1573 1573
1517 1519 1521 1526 1529 1532 1535 1538 1539 1542 1543 1545 1547 1549 1551 1554 1557 1559 1561 1564 1566 1568 1570 1572 1573 1574 1575 1576 1577 1578 1578 1578 1578 1578 1578 1578 1577 1576 1576 1575 1574 1574 1573
1515 1517 1521 1525 1528 1531 1534 1538 1539 1542 1544 1546 1547 1550 1551 1554 1556 1559 1562 1564 1567 1568 1570 1572 1573 1574 1575 1576 1577 1577 1578 1578 1578 1578 1578 1578 1577 1576 1576 1575 1575 1574 1573
1513 1517 1520 1524 1527 1530 1533 1536 1539 1541 1544 1546 1548 1550 1553 1555 1557 1560 1562 1565 1567 1568 1570 1571 1572 1574 1575 1575 1576 1577 1577 1577 1577 1577 1577 1577 1577 1576 1576 1575 1574 1574 1573
1512 1514 1518 1522 1526 1529 1532 1534 1538 1541 1543 1546 1548 1550 1553 1555 1557 1559 1562 1564 1566 1568 1569 1571 1572 1573 1574 1575 1575 1576 1576 1576 1576 1576 1576 1576 1576 1575 1575 1574 1573 1572 1572
1507 1513 1515 1517 1523 1527 1530 1532 1536 1540 1541 1544 1547 1549 1552 1554 1556 1559 1561 1563 1565 1567 1568 1570 1571 1572 1573 1573 1574 1574 1575 1575 1575 1575 1575 1575 1575 1575 1574 1573 1573 1571 1570
1503 1510 1515 1517 1520 1523 1527 1530 1533 1537 1540 1543 1545 1548 1551 1553 1556 1558 1560 1562 1563 1565 1566 1568 1569 1570 1571 1572 1573 1573 1574 1574 1574 1574 1574 1574 1573 1573 1573 1572 1572 1571 1569
1498 1503 1511 1515 1518 1520 1523 1528 1531 1534 1538 1541 1544 1547 1549 1552 1554 1557 1558 1560 1561 1563 1564 1565 1567 1568 1569 1570 1571 1571 1572 1572 1572 1572 1572 1572 1572 1572 1571 1571 1570 1570 1569
1494 1498 1501 1512 1516 1519 1521 1525 1530 1532 1535 1538 1541 1545 1547 1550 1552 1555 1556 1558 1559 1561 1561 1563 1564 1565 1566 1568 1569 1569 1570 1570 1570 1570 1570 1570 1570 1569 1569 1568 1567 1566 1566
1490 1490 1497 1506 1509 1513 1519 1525 1528 1532 1534 1535 1538 1542 1546 1548 1550 1552 1554 1555 1557 1558 1560 1561 1562 1563 1564 1565 1567 1567 1568 1568 1568 1568 1568 1567 1566 1566 1565 1565 1564 1563 1563
1491 1495 1502 1505 1507 1513 1517 1521 1527 1530 1532 1534 1537 1538 1542 1545 1547 1550 1552 1553 1554 1555 1557 1559 1560 1561 1562 1562 1563 1564 1565 1565 1565 1565 1565 1564 1563 1562 1560 1560 1559 1559 1559
1490 1495 1498 1502 1505 1511 1514 1517 1522 1527 1529 1531 1534 1536 1538 1540 1544 1547 1550 1550 1551 1552 1554 1556 1557 1559 1560 1561 1561 1562 1563 1563 1562 1562 1561 1560 1558 1557 1556 1555 1555 1555 1554
1490 1493 1496 1499 1502 1509 1513 1520 1522 1524 1524 1526 1529 1531 1534 1537 1539 1543 1546 1547 1548 1548 1550 1553 1554 1556 1557 1558 1558 1559 1559 1559 1558 1558 1557 1557 1555 1553 1552 1551 1552 1552 1552
1487 1491 1495 1498 1502 1505 1510 1514 1515 1519 1520 1521 1525 1527 1531 1533 1536 1537 1539 1541 1542 1543 1545 1548 1550 1552 1553 1555 1556 1556 1555 1556 1553 1554 1554 1553 1551 1550 1548 1548 1548 1548 1550
1484 1484 1491 1494 1496 1501 1504 1508 1510 1513 1515 1517 1519 1522 1525 1527 1528 1529 1532 1534 1536 1538 1541 1542 1545 1547 1549 1551 1552 1554 1553 1552 1551 1549 1549 1549 1548 1547 1546 1545 1545 1543 1545
1483 1487 1486 1489 1491 1496 1499 1503 1504 1508 1513 1516 1515 1518 1520 1523 1524 1523 1527 1528 1530 1533 1535 1538 1540 1542 1544 1546 1548 1550 1549 1550 1549 1546 1544 1544 1545 1544 1543 1542 1542 1542 1540
1481 1483 1485 1487 1489 1492 1495 1498 1500 1504 1508 1506 1510 1513 1515 1515 1517 1520 1522 1523 1524 1529 1528 1531 1535 1538 1540 1542 1543 1544 1545 1543 1544 1543 1539 1539 1540 1539 1539 1538 1538 1538 1537
1478 1480 1482 1485 1487 1491 1492 1496 1499 1500 1501 1503 1503 1506 1510 1511 1512 1514 1517 1517 1518 1523 1527 1527 1532 1533 1532 1535 1538 1538 1538 1538 1539 1540 1537 1536 1534 1532 1532 1532 1532 1532 1532